EN

Hourly Weather Borovaya

Today, 15 April, Thursday

Time Temperature Precipitation Wind Pressure Humidity
00:00 +8°C° 0 mm 1 mps 757 mmHg 95%
01:00 +8°C° 0 mm 1 mps 757 mmHg 95%
02:00 +8°C° 0 mm 1 mps 756 mmHg 95%
03:00 +6°C° 0 mm 2 mps 756 mmHg 95%
04:00 +7°C° 0 mm 1 mps 756 mmHg 96%
05:00 +6°C° 0 mm 2 mps 756 mmHg 94%
06:00 +7°C° 0 mm 2 mps 756 mmHg 92%
07:00 +8°C° 0 mm 2 mps 755 mmHg 90%
08:00 +10°C° 0 mm 2 mps 755 mmHg 83%
09:00 +12°C° 0 mm 3 mps 755 mmHg 76%
10:00 +14°C° 0 mm 4 mps 754 mmHg 67%
11:00 +15°C° 0 mm 4 mps 754 mmHg 65%
12:00 +17°C° 0 mm 4 mps 754 mmHg 62%
13:00 +18°C° 0 mm 4 mps 753 mmHg 59%
14:00 +18°C° 0 mm 4 mps 753 mmHg 61%
15:00 +18°C° 0 mm 4 mps 753 mmHg 62%
16:00 +18°C° 0 mm 4 mps 753 mmHg 64%
17:00 +15°C° 0.3 mm 4 mps 753 mmHg 71%
18:00 +14°C° 0.3 mm 3 mps 753 mmHg 78%
19:00 +12°C° 0.3 mm 3 mps 752 mmHg 86%
20:00 +10°C° 0.2 mm 3 mps 753 mmHg 85%
21:00 +7°C° 0.2 mm 4 mps 754 mmHg 84%
22:00 +6°C° 0.2 mm 4 mps 755 mmHg 82%
23:00 +5°C° 0.2 mm 4 mps 755 mmHg 83%

Tomorrow, 16 April, Friday

Time Temperature Precipitation Wind Pressure Humidity
00:00 +4°C° 0.2 mm 4 mps 756 mmHg 83%
01:00 +4°C° 0.2 mm 3 mps 756 mmHg 83%
02:00 +3°C° 0 mm 4 mps 757 mmHg 80%
03:00 +3°C° 0 mm 4 mps 757 mmHg 78%
04:00 +1°C° 0 mm 4 mps 757 mmHg 76%
05:00 +1°C° 0 mm 4 mps 758 mmHg 73%
06:00 +1°C° 0 mm 4 mps 758 mmHg 71%
07:00 +2°C° 0 mm 3 mps 759 mmHg 69%
08:00 +3°C° 0 mm 3 mps 759 mmHg 61%
09:00 +4°C° 0 mm 3 mps 759 mmHg 53%
10:00 +5°C° 0 mm 4 mps 759 mmHg 46%
11:00 +7°C° 0 mm 3 mps 759 mmHg 42%
12:00 +8°C° 0 mm 3 mps 759 mmHg 39%
13:00 +9°C° 0 mm 3 mps 759 mmHg 35%
14:00 +9°C° 0 mm 3 mps 759 mmHg 35%
15:00 +9°C° 0 mm 3 mps 759 mmHg 34%
16:00 +9°C° 0 mm 3 mps 759 mmHg 34%
17:00 +8°C° 0 mm 3 mps 759 mmHg 40%
18:00 +7°C° 0 mm 3 mps 759 mmHg 46%
19:00 +6°C° 0 mm 2 mps 759 mmHg 51%
20:00 +5°C° 0 mm 2 mps 759 mmHg 56%
21:00 +4°C° 0 mm 2 mps 759 mmHg 61%
22:00 +4°C° 0 mm 1 mps 760 mmHg 65%
23:00 +3°C° 0 mm 1 mps 760 mmHg 67%

Day after tomorrow, 17 April, Saturday

Time Temperature Precipitation Wind Pressure Humidity
00:00 +3°C° 0 mm 1 mps 760 mmHg 68%
01:00 +2°C° 0 mm 1 mps 759 mmHg 69%
02:00 +2°C° 0 mm 1 mps 759 mmHg 70%
03:00 +2°C° 0 mm 1 mps 760 mmHg 70%
04:00 +1°C° 0 mm 1 mps 760 mmHg 70%
05:00 +2°C° 0 mm 1 mps 760 mmHg 67%
06:00 +3°C° 0 mm 1 mps 760 mmHg 65%
07:00 +4°C° 0 mm 1 mps 760 mmHg 62%
08:00 +5°C° 0 mm 1 mps 760 mmHg 58%
09:00 +7°C° 0 mm 1 mps 759 mmHg 54%
10:00 +7°C° 0 mm 2 mps 759 mmHg 50%
11:00 +8°C° 0 mm 2 mps 759 mmHg 48%
12:00 +8°C° 0 mm 2 mps 759 mmHg 46%
13:00 +9°C° 0 mm 3 mps 758 mmHg 44%
14:00 +9°C° 0 mm 3 mps 758 mmHg 45%
15:00 +9°C° 0 mm 3 mps 758 mmHg 46%
16:00 +8°C° 0 mm 4 mps 757 mmHg 46%
17:00 +8°C° 0 mm 3 mps 757 mmHg 52%
18:00 +7°C° 0 mm 2 mps 757 mmHg 57%
19:00 +7°C° 0 mm 1 mps 756 mmHg 62%
20:00 +6°C° 0 mm 1 mps 756 mmHg 66%
21:00 +5°C° 0 mm 2 mps 756 mmHg 70%
22:00 +4°C° 0 mm 2 mps 756 mmHg 73%
23:00 +3°C° 0 mm 2 mps 755 mmHg 75%

18 April, Sunday

Time Temperature Precipitation Wind Pressure Humidity
00:00 +3°C° 0 mm 2 mps 755 mmHg 77%
01:00 +3°C° 0 mm 2 mps 755 mmHg 78%
02:00 +1°C° 0 mm 3 mps 754 mmHg 79%
03:00 +1°C° 0 mm 3 mps 754 mmHg 81%
04:00 +1°C° 0 mm 3 mps 754 mmHg 82%
05:00 0°C° 0 mm 4 mps 754 mmHg 82%
06:00 +1°C° 0 mm 4 mps 754 mmHg 82%
07:00 +1°C° 0 mm 5 mps 754 mmHg 83%
08:00 +1°C° 0 mm 5 mps 755 mmHg 69%
09:00 +1°C° 0 mm 5 mps 756 mmHg 56%
10:00 +1°C° 0 mm 5 mps 756 mmHg 42%
11:00 +2°C° 0 mm 5 mps 757 mmHg 40%
12:00 +2°C° 0 mm 5 mps 757 mmHg 37%
13:00 +3°C° 0 mm 5 mps 758 mmHg 35%
14:00 +3°C° 0 mm 5 mps 758 mmHg 35%
15:00 +3°C° 0 mm 5 mps 758 mmHg 36%
16:00 +3°C° 0 mm 5 mps 759 mmHg 36%
17:00 +2°C° 0 mm 5 mps 759 mmHg 44%
18:00 +1°C° 0 mm 4 mps 760 mmHg 52%
19:00 +1°C° 0 mm 3 mps 761 mmHg 59%
20:00 0°C° 0 mm 3 mps 761 mmHg 58%
21:00 -1°C° 0 mm 2 mps 762 mmHg 57%
22:00 -1°C° 0 mm 2 mps 762 mmHg 56%
23:00 -2°C° 0 mm 2 mps 763 mmHg 56%

19 April, Monday

Time Temperature Precipitation Wind Pressure Humidity
00:00 -2°C° 0 mm 2 mps 763 mmHg 56%
01:00 -3°C° 0 mm 2 mps 763 mmHg 56%
02:00 -3°C° 0 mm 2 mps 764 mmHg 57%
03:00 -3°C° 0 mm 2 mps 764 mmHg 57%
04:00 -2°C° 0 mm 1 mps 765 mmHg 57%
05:00 -1°C° 0 mm 1 mps 765 mmHg 52%
06:00 0°C° 0 mm 1 mps 765 mmHg 46%
07:00 0°C° 0 mm 1 mps 766 mmHg 41%
08:00 -1°C° 0 mm 2 mps 766 mmHg 37%
09:00 +1°C° 0 mm 2 mps 766 mmHg 33%
10:00 +2°C° 0 mm 2 mps 765 mmHg 30%
11:00 +3°C° 0 mm 2 mps 765 mmHg 29%
12:00 +3°C° 0 mm 2 mps 765 mmHg 29%
13:00 +4°C° 0 mm 2 mps 765 mmHg 28%
14:00 +4°C° 0 mm 2 mps 765 mmHg 29%
15:00 +4°C° 0 mm 2 mps 764 mmHg 30%
16:00 +3°C° 0 mm 3 mps 764 mmHg 32%
17:00 +4°C° 0 mm 2 mps 764 mmHg 36%
18:00 +3°C° 0 mm 2 mps 764 mmHg 41%
19:00 +2°C° 0 mm 2 mps 764 mmHg 45%
20:00 +1°C° 0 mm 2 mps 764 mmHg 48%
21:00 +1°C° 0 mm 1 mps 764 mmHg 50%
22:00 0°C° 0 mm 1 mps 765 mmHg 52%
23:00 0°C° 0 mm 1 mps 765 mmHg 53%

20 April, Tuesday

Time Temperature Precipitation Wind Pressure Humidity
00:00 0°C° 0 mm 1 mps 765 mmHg 54%
01:00 0°C° 0 mm 1 mps 765 mmHg 55%
02:00 -1°C° 0 mm 1 mps 765 mmHg 55%
03:00 -1°C° 0 mm 1 mps 765 mmHg 55%
04:00 -1°C° 0 mm 1 mps 765 mmHg 56%
05:00 0°C° 0 mm 1 mps 765 mmHg 52%
06:00 -1°C° 0 mm 2 mps 765 mmHg 49%
07:00 +1°C° 0 mm 2 mps 765 mmHg 45%
08:00 +2°C° 0 mm 2 mps 765 mmHg 42%
09:00 +3°C° 0 mm 2 mps 765 mmHg 38%
10:00 +4°C° 0 mm 3 mps 765 mmHg 34%
11:00 +5°C° 0 mm 3 mps 764 mmHg 34%
12:00 +5°C° 0 mm 3 mps 764 mmHg 34%
13:00 +7°C° 0 mm 3 mps 764 mmHg 34%
14:00 +8°C° 0 mm 3 mps 763 mmHg 34%
15:00 +8°C° 0 mm 3 mps 763 mmHg 35%
16:00 +8°C° 0 mm 3 mps 763 mmHg 35%
17:00 +7°C° 0 mm 2 mps 763 mmHg 41%
18:00 +6°C° 0 mm 2 mps 763 mmHg 46%
19:00 +6°C° 0 mm 1 mps 763 mmHg 52%
20:00 +5°C° 0 mm 1 mps 763 mmHg 55%
21:00 +4°C° 0 mm 1 mps 763 mmHg 58%
22:00 +4°C° 0 mm 1 mps 764 mmHg 61%
23:00 +3°C° 0 mm 1 mps 764 mmHg 63%
Show more

We Need Your Consent

Meteoprog and our Service Providers may store and access personal data such as cookies, device identifiers or other similar technologies on your device and process such data to personalise content and ads, as well as provide social media features and to analyse the traffic.

  • Store and/or access information on your device

    Cookies, device identifiers or other information can be stored or accessed on your device for the purposes indicated above.

  • Personalised ads and content, ad and content measurement, audience insights, and products development

    Ads and content can be personalised based on a profile. More data can be added to better personalise ads and content. Ad and content performance can be measured. Insights about the audience who saw the ads and content can be derived. Such data can be used to develop or improve user’s experience, systems and software.

By clicking ‘I Agree’ you will allow the use of indicated cookies, device identifiers, web beacons or other similar technologies. Your settings can be changed in the browser on your device.

For certain purposes, legitimate interests may be relied on, rather than consent. You can read more about this in our Privacy and Cookie Policy.